Challenge Cours la Province !

Le Jogging Du Maïeur à Herstal (11.00 km)

dimanche 10 février 2019

Vous pouvez trouver Le classement original sur : www.otopservices.be  
CHALLENGE COURS LA PROVINCE
LE JOGGING DU MAÏEUR - HERSTAL
DISTANCE : 10.95 km
dimanche 10 février 2019
 
Place dos NOM Catégorie Pl/cat temps temps/km Vitesse
01:00:00              
1 1132 ANTOINE GUILLICK SENIOR H 1 00:37:08 03:23 17.70
2 1 PATRICK PHILIPPE VÉTÉRAN 2 1 00:37:18 03:24 17.62
3 251 REMI LECAT SENIOR H 2 00:42:08 03:51 15.60
4 235 SYLVAIN LEJEUNE SENIOR H 3 00:42:21 03:52 15.52
5 36 MICHEL MATHOT VETERAN 1 1 00:43:42 03:59 15.04
6 229 BENOÎT JANSEN SENIOR H 4 00:43:43 03:59 15.03
7 250 ALI MOKHLES VETERAN 1 2 00:43:44 04:00 15.03
8 42 DAVID FRISON VETERAN 1 3 00:44:03 04:01 14.92
9 185 JOHAN NERRINCK VETERAN 1 4 00:44:17 04:03 14.84
10 241 GAETANO VITA VETERAN 1 5 00:45:13 04:08 14.54
11 109 MOURAD IDRAF VETERAN 1 6 00:45:17 04:08 14.51
12 11 IRENE TOSI SENIOR D 1 00:45:24 04:09 14.48
13 20 ANTONIO PIRARD SENIOR H 5 00:45:57 04:12 14.30
14 346 PIERRE-HENRI CORSWAREM SENIOR H 6 00:46:05 04:12 14.26
15 68 JULIEN LEDRUS SENIOR H 7 00:46:10 04:13 14.24
16 252 HELORI LAMBERTY SENIOR H 8 00:46:26 04:14 14.15
17 331 ERIC BOSMANS VÉTÉRAN 2 2 00:46:33 04:15 14.12
18 266 FREDERIC LEMIRE VETERAN 1 7 00:46:35 04:15 14.11
19 208 FRANCOIS HAUTECOEUR SENIOR H 9 00:46:43 04:16 14.07
20 209 FLORIAN SAMOUH SENIOR H 10 00:46:43 04:16 14.07
21 253 JULIEN SALERNO SENIOR H 11 00:46:54 04:17 14.01
22 256 DAMIEN CHARLIER SENIOR H 12 00:46:56 04:17 14.00
23 328 PIERRE MALOIR VÉTÉRAN 2 3 00:46:59 04:17 13.99
24 225 THIBAU THOMASSIN SENIOR H 13 00:47:17 04:19 13.90
25 108 ALAIN MARCHAL VÉTÉRAN 2 4 00:47:22 04:19 13.88
26 224 JEAN-MICHEL MARTIN VETERAN 3 1 00:47:44 04:21 13.77
27 322 BENJAMIN CORNET SENIOR H 14 00:47:56 04:23 13.71
28 70 VINCENT POLLET VETERAN 1 8 00:48:03 04:23 13.68
29 237 ANTONIO MANCA VETERAN 1 9 00:48:18 04:25 13.61
30 323 QUENTIN CORNET SENIOR H 15 00:48:18 04:25 13.61
31 84 MICHEL BIELEN VETERAN 3 2 00:48:26 04:25 13.57
32 232 FABIAN PHILIPPART VETERAN 1 10 00:48:39 04:26 13.51
33 269 TOMOKA SOUDO AINÉE 1 1 00:48:46 04:27 13.48
34 107 PIETER DULLERS SENIOR H 16 00:49:05 04:29 13.39
35 71 PHILIPPE GHEURY VETERAN 1 11 00:49:27 04:31 13.29
36 33 MICHEL JEUKENS VETERAN 1 12 00:49:31 04:31 13.27
37 244 ALBERT VANDENSAVEL VETERAN 3 3 00:49:37 04:32 13.25
38 169 SAMUEL BENVENUTO SENIOR H 17 00:49:44 04:32 13.22
39 325 CAMILLE MOTTE AINÉE 2 1 00:49:52 04:33 13.18
40 151 KÉVIN PEREAUX SENIOR H 18 00:49:53 04:33 13.18
41 32 NICOLAS BYNENS VETERAN 3 4 00:49:53 04:33 13.18
42 87 CHRISTIAN CULOT VETERAN 1 13 00:49:55 04:33 13.17
43 40 RENAUD SCHUTZ VETERAN 1 14 00:49:59 04:34 13.15
44 159 PAUL RIHON VETERAN 3 5 00:50:25 04:36 13.04
45 135 ERIC MARTIN VÉTÉRAN 2 5 00:50:27 04:36 13.03
46 343 ABDELLAH OUAHID VÉTÉRAN 2 6 00:50:32 04:37 13.01
47 215 JIMMY FORTEMPS SENIOR H 19 00:50:39 04:37 12.98
48 24 LAURENT SMITZ VETERAN 1 15 00:50:47 04:38 12.94
49 125 PIERRE PROFITA SENIOR H 20 00:50:51 04:39 12.93
50 104 DIDIER DENDAL VÉTÉRAN 2 7 00:51:01 04:39 12.88
51 320 XXX XXX XXX   00:51:02 04:40 12.88
52 27 MANUEL BOSCOLO VETERAN 1 16 00:51:07 04:40 12.86
53 339 PHILIPPE ANGE SENIOR H 21 00:51:28 04:42 12.77
54 239 YAO DONGO SENIOR H 22 00:51:29 04:42 12.77
55 217 LAURENT SCHEFFERT SENIOR H 23 00:51:34 04:42 12.75
56 265 XXX XXX XXX   00:51:38 04:43 12.73
57 85 DOMINIQUE GILLET VÉTÉRAN 2 8 00:51:46 04:44 12.70
58 268 MARC LENAERTS VÉTÉRAN 2 9 00:51:50 04:44 12.68
59 121 SÉBASTIEN LECLERE SENIOR H 24 00:51:51 04:44 12.68
60 26 THIERRY RENARD VETERAN 1 17 00:52:01 04:45 12.64
61 234 FABRICE DIET VETERAN 1 18 00:52:07 04:45 12.61
62 148 JACQUES BECKERS VETERAN 1 19 00:52:08 04:46 12.61
63 205 ADRIEN MOUREAU SENIOR H 25 00:52:40 04:48 12.48
64 168 FRANCOISE PISCART AINÉE 1 2 00:52:44 04:49 12.46
65 76 LIESBETH VANNESTE SENIOR D 2 00:52:49 04:49 12.44
66 129 ANGEL FERNANDEZ VÉTÉRAN 2 10 00:53:03 04:51 12.39
67 63 AURELIE GABRYS SENIOR D 3 00:53:08 04:51 12.37
68 262 EDOUARD HALLEUX SENIOR H 26 00:53:10 04:51 12.36
69 171 QUENTIN MARIVAIN SENIOR H 27 00:53:22 04:52 12.32
70 140 FREDERIC DE CECCO VETERAN 1 20 00:53:27 04:53 12.30
71 161 LAURENT SEYNAEVE VETERAN 1 21 00:53:35 04:53 12.27
72 219 MARIANNE DUMONT AINÉE 1 3 00:53:38 04:54 12.25
73 260 EDOUARD MORANA VÉTÉRAN 2 11 00:53:38 04:54 12.25
74 29 CHRISTIAN PARISSE VETERAN 1 22 00:53:57 04:55 12.18
75 115 RAMON GADEA VETERAN 3 6 00:54:02 04:56 12.16
76 173 GENEVIÈVE GILLES AINÉE 1 4 00:54:02 04:56 12.16
77 52 DIEGO ESPINOSA VETERAN 3 7 00:54:04 04:56 12.16
78 202 MAURICE IMMERS VETERAN 1 23 00:54:06 04:56 12.15
79 66 ISABELLE NEURAY AINÉE 1 5 00:54:12 04:57 12.13
80 142 MELVIN LEENDERS SENIOR H 28 00:54:14 04:57 12.12
81 341 JAN FRANÇOIS MOESEN VETERAN 1 24 00:54:15 04:57 12.12
82 78 FABIAN CALDART VETERAN 1 25 00:54:32 04:59 12.05
83 99 NATHALIE STEIMES AINÉE 1 6 00:54:40 04:59 12.02
84 259 MICHEL BORGS VÉTÉRAN 2 12 00:54:41 05:00 12.02
85 222 JEAN-YVES CULOT VÉTÉRAN 2 13 00:55:05 05:02 11.93
86 122 CHRISTOPHE DETRIXHE VETERAN 1 26 00:55:09 05:02 11.92
87 329 GEOFFREY LÉONARD SENIOR H 29 00:55:16 05:03 11.89
88 14 FLORENCE SOMJA SENIOR D 4 00:55:26 05:04 11.86
89 332 RENE DUFOUR VETERAN 3 8 00:55:37 05:05 11.82
90 132 EUDORE FAFCHAMPS VÉTÉRAN 2 14 00:55:45 05:05 11.79
91 43 DENIS PITON SENIOR H 30 00:55:52 05:06 11.76
92 336 MAXIME WILKIN VETERAN 1 27 00:56:10 05:08 11.70
93 146 BENOIT NELIS VÉTÉRAN 2 15 00:56:17 05:08 11.68
94 207 LAURENT KRZEWINSKI VETERAN 1 28 00:56:19 05:08 11.67
95 83 JOSE SANCHEZ VETERAN 1 29 00:56:43 05:11 11.59
96 170 DANIEL LAFRATTA VÉTÉRAN 2 16 00:56:49 05:11 11.57
97 111 VALÉRIE DURELLO SENIOR D 5 00:57:05 05:13 11.51
98 128 FIRO ILUNGA SENIOR H 31 00:57:25 05:14 11.45
99 116 CEDRIC BOURDOUX SENIOR H 32 00:57:26 05:15 11.44
100 114 STELIO HADJIDIMITRIOU VÉTÉRAN 2 17 00:57:35 05:15 11.41
101 158 MANU BERTIER VÉTÉRAN 2 18 00:57:39 05:16 11.40
102 117 PHILIPPE LICOT VÉTÉRAN 2 19 00:58:08 05:18 11.31
103 228 LAURIE BODSON SENIOR D 6 00:58:17 05:19 11.28
104 340 GREGORY SCATTONE SENIOR H 33 00:58:29 05:20 11.24
105 127 HUGUES BOTQUIN VÉTÉRAN 2 20 00:58:34 05:21 11.22
106 160 FABIAN BALDO VÉTÉRAN 2 21 00:58:41 05:21 11.20
107 335 SEVERINE PIRARD AINÉE 1 7 00:58:47 05:22 11.18
108 238 GUY RAES VETERAN 3 9 00:58:56 05:23 11.15
109 347 DÉVY SCATTONE SENIOR H 34 00:59:11 05:24 11.11
110 326 MARC COLABELLA VÉTÉRAN 2 22 00:59:11 05:24 11.11
111 61 HERVÉ HANUSSEK SENIOR H 35 00:59:49 05:28 10.99
112 95 JONATHAN WITSEL SENIOR H 36 00:59:49 05:28 10.99
113 204 CEDRIC NULENS VETERAN 1 30 01:00:11 05:30 10.92
114 248 JO GEUZAINE VÉTÉRAN 2 23 01:00:23 05:31 10.88
115 227 DENIS BODSON SENIOR H 37 01:00:31 05:31 10.86
116 263 ENZO BONVISSUTO VETERAN 1 31 01:00:32 05:32 10.86
117 242 ALAIN NIHON SENIOR H 38 01:00:35 05:32 10.85
118 35 LUDOVIC DASSY SENIOR H 39 01:00:42 05:32 10.83
119 187 CARLO PACE VETERAN 3 10 01:01:04 05:34 10.76
120 254 FABIAN GRPSCH VETERAN 1 32 01:01:06 05:35 10.76
121 13 DAVID CRANINX SENIOR H 40 01:01:12 05:35 10.74
122 16 LAURENT GALAS VETERAN 1 33 01:01:14 05:35 10.73
123 58 SAGRARIO PEREZ AINÉE 3 1 01:01:23 05:36 10.71
124 264 CAROLE BLOCKOUSE SENIOR D 7 01:01:33 05:37 10.68
125 230 THIERRY POTTIER SENIOR H 41 01:01:33 05:37 10.68
126 261 SOLENE VANDEWEERD SENIOR D 8 01:01:33 05:37 10.68
127 152 LUCIEN ARNOULD VETERAN 1 34 01:01:51 05:39 10.63
128 321 ANTONIO IOVINE VETERAN 1 35 01:01:52 05:39 10.62
129 167 MICHEL CUSTERS VETERAN 3 11 01:02:55 05:45 10.45
130 92 CELINE MAFIT SENIOR D 9 01:03:32 05:48 10.35
131 106 ROCCO LA ROSA SENIOR H 42 01:03:36 05:48 10.33
132 247 HUBERT BONINI VÉTÉRAN 2 24 01:04:04 05:51 10.26
133 246 KEVIN BONINI SENIOR H 43 01:04:05 05:51 10.26
134 113 CLAUDE LARMINIER VETERAN 3 12 01:04:07 05:51 10.25
135 30 JEAN-CLAUDE MAUS VETERAN 3 13 01:04:10 05:51 10.24
136 72 SOPHIE DEPREZ SENIOR D 10 01:04:17 05:52 10.22
137 73 KAREN POIROUX SENIOR D 11 01:04:21 05:52 10.21
138 118 CHRISTIAN SKEVEE VETERAN 1 36 01:04:26 05:53 10.20
139 134 SANDRINE SEYEN AINÉE 1 8 01:04:55 05:56 10.12
140 324 JACQUELINE COURTIN AINÉE 2 2 01:05:11 05:57 10.08
141 210 JORDAN NIJS SENIOR H 44 01:05:34 05:59 10.02
142 154 ANDRÉ WASSON VÉTÉRAN 2 25 01:06:07 06:02 9.94
143 77 THIBAULT LANNOY ESPOIR H 1 01:06:26 06:04 9.89
144 240 FRANCE DUVIVIER AINÉE 2 3 01:06:28 06:04 9.89
145 46 ANAÏS DEVILLE SENIOR D 12 01:06:29 06:04 9.89
146 48 JULIEN BARNI VETERAN 1 37 01:06:40 06:05 9.86
147 144 LAURENCE FAMERIE AINÉE 1 9 01:06:47 06:06 9.84
148 147 INE RAMAEKERS AINÉE 1 10 01:06:48 06:06 9.84
149 211 ERIC NIJS VÉTÉRAN 2 26 01:06:52 06:06 9.83
150 206 ALAIN HISSA VETERAN 3 14 01:08:00 06:12 9.67
151 141 JEAN-PIERRE CLAESENS VETERAN 3 15 01:08:00 06:12 9.67
152 57 JEAN-PIERRE MASSON VETERAN 3 16 01:08:00 06:12 9.67
153 62 NATTY VILAIN SENIOR D 13 01:08:43 06:16 9.56
154 80 JEAN-MARIE DERWAEL VÉTÉRAN 2 27 01:10:05 06:24 9.38
155 50 PIERRE ANSEN VETERAN 3 17 01:11:35 06:32 9.18
156 49 DANIELLE AMABILI AINÉE 3 2 01:11:43 06:33 9.16
157 6 ANDRÉ SAUVEUR VETERAN 3 18 01:12:08 06:35 9.11
158 17 ANGEL CRISTOBO VETERAN 3 19 01:12:38 06:38 9.05
159 19 MARIE-PAULE LENAERTS AINÉE 1 11 01:12:39 06:38 9.05
160 221 XXX XXX XXX   01:13:26 06:42 8.95
161 220 XXX XXX XXX   01:13:27 06:42 8.95
162 163 SANDRA ROSSI AINÉE 1 12 01:13:33 06:43 8.94
163 166 MARIJA ELEZ AINÉE 2 4 01:13:33 06:43 8.94
164 342 FABIENNE THOMAS AINÉE 1 13 01:14:05 06:46 8.87
165 54 CHRISTIAN GOOSSE VETERAN 3 20 01:14:08 06:46 8.87
166 55 CLORINDA MARIGHETTO AINÉE 2 5 01:14:10 06:46 8.86
167 270 PAULINE MARCHAND ESPOIR D 1 01:16:37 07:00 8.58
168 319 ALEXANDRE MARCHAND VETERAN 1 38 01:16:37 07:00 8.58
169 28 MICHEL BABE VÉTÉRAN 2 28 01:17:52 07:06 8.44
170 25 GAËLLE POLIS AINÉE 1 14 01:17:56 07:07 8.43
171 344 CAROLINE SUAIN AINÉE 1 15 01:18:02 07:07 8.42
172 345 NATHALIE PELZER AINÉE 1 16 01:18:14 07:09 8.40
173 101 VERONIQUE GRENSON AINÉE 2 6 01:18:16 07:09 8.40
174 3 FRANCA CARIA AINÉE 1 17 01:18:35 07:10 8.36
175 2 MADELEINE GUIDE AINÉE 2 7 01:18:54 07:12 8.33
176 23 SOFIE MAES AINÉE 2 8 01:20:21 07:20 8.18